{"data":{"norad_id":59897,"intl_designator":"2024-100N","name":"STARLINK-31928","alt_names":[],"object_type":"PAYLOAD","status":"ACTIVE","operator":null,"country":"US","launch_date":"2024-05-28","launch_site_code":"AFETR","launch_vehicle":null,"mission":null,"orbit_class":"UNKNOWN","rcs_meters":null,"size_class":null,"mass_kg":null,"dimensions":null,"purposes":["comms"],"wikipedia_slug":null,"has_3d_model":false,"image_url":null,"decayed_at":null,"tle_current":{"epoch":"2026-09-21T21:57:28.727712Z","epoch_age_seconds":52255,"freshness":"FRESH","line1":"1 59897U 24100N   26264.91491583  .00000012  00000+0  99667-5 0  9999","line2":"2 59897  43.0045  97.5100 0001117 264.1076  95.9648 15.27576721131069","mean_motion":15.27576721,"eccentricity":0.0001117,"inclination_deg":43.0045,"raan_deg":97.51,"arg_perigee_deg":264.1076,"mean_anomaly_deg":95.9648,"bstar":9.9667e-6,"rev_number":13106,"period_min":94.266951060719,"perigee_km":482.29251897917,"apogee_km":483.82531014649,"semimajor_km":6861.1959145628,"source":"CELESTRAK","updated_at":"2026-09-22T09:00:49.108031Z"}}}